STARLINK-32009, 60104

Orbit data source: Space-Track

STARLINK-32009, 60104 is a payload satellite owned by SpaceX/Seattle (US) in LEO that was launched on Sun, 23 Jun 2024 UTC via an FALCON 9 launch vehicle from the Air Force Eastern Test Range (AFETR). Payload-class satellites include a variety of spacecraft equipped with specific instruments for various scientific and technological missions. These include communications satellites like Starlink; space stations such as the ISS; scientific satellites like the Hubble; Earth observation satellites from companies like Planet Labs, Umbra, and HawkEye 360; GPS; miniature CubeSats for education and research; and military/defense satellites.

Loading next visibility...
Identifier
60104, 2024-117P
Orbit
LEO
Country
Flag of USUS
Related business
Manufacturer
SpaceX/Seattle
Mission
Operational Commercial Communications
Bus & Motor
STARLINK V2M, Unknown motor
Mass
730 kg wet, ~700 kg dry
Launch date (UTC)
2024-06-23 (2 years ago)
Launch vehicle
FALCON 9
Launch site
Air Force Eastern Test Range (AFETR)
Object type
Payload
Rocket body
Debris
Shape & HBR
Box + 2 Pan, 17.7 m
Radar Cross Section
33.884 m², Large (>1 m²)

Expand to show TLE details & history
Last TLE update: 12 hours ago

TLE from 12 hours ago
0 STARLINK-32009
1 60104U 24117P   26171.41668980 -.00005295  00000-0 -14585-3 0  9994
2 60104  53.1599 280.1619 0001637  93.2513 184.5438 15.34363145  5892
Epoch: 2026-06-20T10:00Z
TLE epoch observation values (Epoch: 2026-06-20T10:00:01.998Z)
Latitude
-52.61563°
Longitude
144.35128°
Altitude
482.203 km
Speed
7.623 km/s
True Right ascension
13h 31m 57s
True Declination
-52° 26' 34"
Sunlit
Object was in full shadow at epoch
Visualization orbit readout
Latitude
Unknown
Longitude
Unknown
Altitude
Unknown
Speed
Unknown
Apparent Right ascension
Unknown
Apparent Declination
Unknown
Sunlit
N/A
Visualization observer readout
Local Sidereal Time
08:32:42
Azimuth
Unknown
Elevation
Unknown
Doppler factor
Unknown
Orbital elements
Apogee altitude
464.19 km
Perigee altitude
461.95 km
Semi-major axis
6,841.207 km
Eccentricity
0.00016
Inclination
53.1599°
RAAN
280.1619°
Arg. of periapsis
93.2513°
True anomaly
184.54231°
Mean anomaly
184.5438°
Eccentric anomaly
184.54306°
Mean motion
3.8357 °/min
Orbital period
93.86 mins
BSTAR
-0.00014585
Loading maneuver chart data...
Computing Atmospheric mass density...
Loading historical data...
Loading historical data...
Loading historical data...
Loading historical data...
Loading historical data...
Loading historical data...
Loading historical data...

Documentation

Showing up to 5 results
|